timestamp,surface_pressure_avg,surface_temp_avg,battery_voltage,lat,long
2020-10-13 00:09:01+00:00,241.2848,13.2,12.73,47.84626,-54.09684
2020-10-13 00:19:01+00:00,234.7514,13.1,12.73,47.84626,-54.09684
2020-10-13 00:29:01+00:00,226.7414,12.9,12.73,47.84626,-54.09684
2020-10-13 00:39:01+00:00,222.3431,12.7,12.73,47.84626,-54.09684
2020-10-13 00:49:01+00:00,220.593,12.6,12.73,47.84626,-54.09684
2020-10-13 00:59:01+00:00,216.5498,12.6,12.73,47.84626,-54.09684
2020-10-13 01:09:01+00:00,209.1598,12.55,12.73,47.84626,-54.09684
2020-10-13 01:19:01+00:00,208.2848,12.54,12.73,47.84626,-54.09684
2020-10-13 01:29:01+00:00,208.2198,12.59,12.73,47.84626,-54.09684
2020-10-13 01:39:01+00:00,203.7898,12.58,12.73,47.84626,-54.09684
2020-10-13 01:49:01+00:00,202.0114,12.6,12.73,47.84626,-54.09684
2020-10-13 01:59:01+00:00,202.8632,12.6,12.73,47.84626,-54.09684
2020-10-13 02:09:01+00:00,202.4482,12.66,12.73,47.84626,-54.09684
2020-10-13 02:19:01+00:00,200.7764,12.7,12.73,47.84626,-54.09684
2020-10-13 02:29:01+00:00,200.2631,12.7,12.73,47.84626,-54.09684
2020-10-13 02:39:01+00:00,200.0764,12.7,12.73,47.84626,-54.09684
2020-10-13 02:49:01+00:00,198.4348,12.7,12.73,47.84626,-54.09684
2020-10-13 02:59:01+00:00,198.4664,12.68,12.73,47.84626,-54.09684
2020-10-13 03:09:01+00:00,201.5214,12.6,12.73,47.84626,-54.09684
2020-10-13 03:19:01+00:00,202.3665,12.6,12.73,47.84626,-54.09684
2020-10-13 03:29:01+00:00,202.5097,12.53,12.73,47.84626,-54.09684
2020-10-13 03:39:01+00:00,205.9565,12.5,12.73,47.84626,-54.09684
2020-10-13 03:49:01+00:00,207.9415,12.5,12.73,47.84626,-54.09684
2020-10-13 03:59:01+00:00,206.7348,12.4,12.73,47.84626,-54.09684
2020-10-13 04:09:01+00:00,210.4664,12.3,12.73,47.84626,-54.09684
2020-10-13 04:19:01+00:00,215.7997,12.27,12.73,47.84626,-54.09684
2020-10-13 04:29:01+00:00,215.7564,12.2,12.73,47.84626,-54.09684
2020-10-13 04:39:01+00:00,217.6698,12.1,12.73,47.84626,-54.09684
2020-10-13 04:49:01+00:00,225.4664,11.9,12.73,47.84626,-54.09684
2020-10-13 04:59:01+00:00,230.083,11.87,12.73,47.84626,-54.09684
2020-10-13 05:09:01+00:00,232.3831,12.1,12.73,47.84626,-54.09684
2020-10-13 05:19:01+00:00,237.3048,12.35,12.73,47.84626,-54.09684
2020-10-13 05:29:01+00:00,243.0648,12.71,12.73,47.84626,-54.09684
2020-10-13 05:39:01+00:00,251.8514,13.15,12.73,47.84626,-54.09684
2020-10-13 05:49:01+00:00,259.0031,13.2,12.73,47.84626,-54.09684
2020-10-13 05:59:01+00:00,263.0247,13.19,12.73,47.84626,-54.09684
2020-10-13 06:09:01+00:00,268.6064,13.18,12.73,47.84626,-54.09684
2020-10-13 06:19:01+00:00,277.5647,13.19,12.73,47.84626,-54.09684
2020-10-13 06:29:01+00:00,281.6064,13.2,12.73,47.84626,-54.09684
2020-10-13 06:39:01+00:00,283.0814,13.2,12.73,47.84626,-54.09684
2020-10-13 06:49:01+00:00,289.5397,13.2,12.73,47.84626,-54.09684
2020-10-13 06:59:01+00:00,296.603,13.2,12.73,47.84626,-54.09684
2020-10-13 07:09:01+00:00,297.558,13.2,12.73,47.84626,-54.09684
2020-10-13 07:19:01+00:00,296.3014,13.2,12.65,47.84626,-54.09684
2020-10-13 07:29:01+00:00,303.3798,13.2,12.65,47.84626,-54.09684
2020-10-13 07:39:01+00:00,307.8864,13.2,12.65,47.84626,-54.09684
2020-10-13 07:49:01+00:00,305.3113,13.19,12.65,47.84626,-54.09684
2020-10-13 07:59:01+00:00,304.4813,13.19,12.65,47.84626,-54.09684
2020-10-13 08:09:01+00:00,313.248,13.17,12.65,47.84626,-54.09684
2020-10-13 08:19:01+00:00,315.7064,13.14,12.65,47.84626,-54.09684
2020-10-13 08:29:01+00:00,313.6913,13.16,12.65,47.84626,-54.09684
2020-10-13 08:39:01+00:00,314.6713,13.2,12.65,47.84626,-54.09684
2020-10-13 08:49:01+00:00,318.4547,13.2,12.65,47.84626,-54.09684
2020-10-13 08:59:01+00:00,314.668,13.2,12.65,47.84626,-54.09684
2020-10-13 09:09:01+00:00,311.053,13.2,12.65,47.84626,-54.09684
2020-10-13 09:19:01+00:00,312.9865,13.2,12.65,47.84626,-54.09684
2020-10-13 09:29:01+00:00,311.9797,13.2,12.65,47.84626,-54.09684
2020-10-13 09:39:01+00:00,306.9347,13.21,12.65,47.84626,-54.09684
2020-10-13 09:49:01+00:00,304.703,13.2,12.65,47.84626,-54.09684
2020-10-13 09:59:01+00:00,304.5064,13.22,12.65,47.84626,-54.09684
2020-10-13 10:09:01+00:00,295.063,13.2,12.65,47.84626,-54.09684
2020-10-13 10:19:01+00:00,286.8781,13.2,12.89,47.84626,-54.09684
2020-10-13 10:29:01+00:00,283.9097,13.2,12.89,47.84626,-54.09684
2020-10-13 10:39:01+00:00,282.988,13.2,12.89,47.84626,-54.09684
2020-10-13 10:49:01+00:00,273.3115,13.2,12.89,47.84626,-54.09684
2020-10-13 10:59:01+00:00,264.8065,13.2,12.89,47.84626,-54.09684
2020-10-13 11:09:01+00:00,264.5764,13.1,12.89,47.84626,-54.09684
2020-10-13 11:19:01+00:00,263.0097,13.1,14.48,47.84626,-54.09684
2020-10-13 11:29:01+00:00,255.1114,12.9,14.48,47.84626,-54.09684
2020-10-13 11:39:01+00:00,248.1531,12.7,14.48,47.84626,-54.09684
2020-10-13 11:49:01+00:00,246.2465,12.7,14.48,47.84626,-54.09684
2020-10-13 11:59:01+00:00,242.8564,12.7,14.48,47.84626,-54.09684
2020-10-13 12:09:01+00:00,233.938,12.59,14.48,47.84626,-54.09684
2020-10-13 12:19:01+00:00,228.5681,12.5,14.64,47.84626,-54.09684
2020-10-13 12:29:01+00:00,228.7914,12.57,14.64,47.84626,-54.09684
2020-10-13 12:39:01+00:00,224.7598,12.5,14.64,47.84626,-54.09684
2020-10-13 12:49:01+00:00,216.2614,12.2,14.64,47.84626,-54.09684
2020-10-13 12:59:01+00:00,214.6364,12.1,14.64,47.84626,-54.09684
2020-10-13 13:09:01+00:00,218.4931,12.1,14.64,47.84626,-54.09684
2020-10-13 13:19:01+00:00,214.7314,12.2,14.72,47.84626,-54.09684
2020-10-13 13:29:01+00:00,206.0131,12.06,14.72,47.84626,-54.09684
2020-10-13 13:39:01+00:00,204.7731,12.22,14.72,47.84626,-54.09684
2020-10-13 13:49:01+00:00,208.2748,12.5,14.72,47.84626,-54.09684
2020-10-13 13:59:01+00:00,205.0965,12.57,14.72,47.84626,-54.09684
2020-10-13 14:09:01+00:00,201.5731,12.57,14.72,47.84626,-54.09684
2020-10-13 14:19:01+00:00,202.1981,12.49,14.64,47.84626,-54.09684
2020-10-13 14:29:01+00:00,202.1131,12.48,14.64,47.84626,-54.09684
2020-10-13 14:39:01+00:00,197.9631,12.53,14.64,47.84626,-54.09684
2020-10-13 14:49:01+00:00,198.6781,12.6,14.64,47.84626,-54.09684
2020-10-13 14:59:01+00:00,202.2031,12.73,14.64,47.84626,-54.09684
2020-10-13 15:09:01+00:00,198.5098,12.9,14.64,47.84626,-54.09684
2020-10-13 15:19:01+00:00,194.3115,13.0,14.56,47.84626,-54.09684
2020-10-13 15:29:01+00:00,199.7798,13.1,14.56,47.84626,-54.09684
2020-10-13 15:39:01+00:00,204.8248,13.14,14.56,47.84626,-54.09684
2020-10-13 15:49:01+00:00,204.2281,13.19,14.56,47.84626,-54.09684
2020-10-13 15:59:01+00:00,206.4965,13.2,14.56,47.84626,-54.09684
2020-10-13 16:09:01+00:00,212.9081,13.2,14.56,47.84626,-54.09684
2020-10-13 16:19:01+00:00,213.3631,13.2,14.48,47.84626,-54.09684
2020-10-13 16:29:01+00:00,215.0098,13.2,14.48,47.84626,-54.09684
2020-10-13 16:39:01+00:00,221.4498,13.2,14.48,47.84626,-54.09684
2020-10-13 16:49:01+00:00,222.8281,13.22,14.48,47.84626,-54.09684
2020-10-13 16:59:01+00:00,222.9048,13.23,14.48,47.84626,-54.09684
2020-10-13 17:09:01+00:00,228.2915,13.23,14.48,47.84626,-54.09684
2020-10-13 17:19:01+00:00,235.1131,13.27,14.32,47.84626,-54.09684
2020-10-13 17:29:01+00:00,240.4531,13.29,14.32,47.84626,-54.09684
2020-10-13 17:39:01+00:00,245.0015,13.3,14.32,47.84626,-54.09684
2020-10-13 17:49:01+00:00,249.3831,13.3,14.32,47.84626,-54.09684
2020-10-13 17:59:01+00:00,255.6947,13.3,14.32,47.84626,-54.09684
2020-10-13 18:09:01+00:00,261.3164,13.3,14.32,47.84626,-54.09684
2020-10-13 18:19:01+00:00,266.6031,13.3,14.16,47.84626,-54.09684
2020-10-13 18:29:01+00:00,272.7898,13.3,14.16,47.84626,-54.09684
2020-10-13 18:39:01+00:00,278.973,13.3,14.16,47.84626,-54.09684
2020-10-13 18:49:01+00:00,283.6347,13.3,14.16,47.84626,-54.09684
2020-10-13 18:59:01+00:00,287.4598,13.31,14.16,47.84626,-54.09684
2020-10-13 19:09:01+00:00,294.7714,13.3,14.16,47.84626,-54.09684
2020-10-13 19:19:01+00:00,300.3997,13.3,13.92,47.84626,-54.09684
2020-10-13 19:29:01+00:00,306.1546,13.31,13.92,47.84626,-54.09684
2020-10-13 19:39:01+00:00,313.793,13.32,13.92,47.84626,-54.09684
2020-10-13 19:49:01+00:00,318.868,13.34,13.92,47.84626,-54.09684
2020-10-13 19:59:01+00:00,314.9363,13.33,13.92,47.84626,-54.09684
2020-10-13 20:09:01+00:00,316.3347,13.37,13.92,47.84626,-54.09684
2020-10-13 20:19:01+00:00,324.6462,13.37,13.53,47.84626,-54.09684
2020-10-13 20:29:01+00:00,324.2596,13.37,13.53,47.84626,-54.09684
2020-10-13 20:39:01+00:00,319.9147,13.38,13.53,47.84626,-54.09684
2020-10-13 20:49:01+00:00,324.6013,13.38,13.53,47.84626,-54.09684
2020-10-13 20:59:01+00:00,332.1829,13.36,13.53,47.84626,-54.09684
2020-10-13 21:09:01+00:00,327.6613,13.36,13.53,47.84626,-54.09684
2020-10-13 21:19:01+00:00,326.5947,13.36,13.21,47.84626,-54.09684
2020-10-13 21:29:01+00:00,331.6513,13.36,13.21,47.84626,-54.09684
2020-10-13 21:39:01+00:00,329.223,13.36,13.21,47.84626,-54.09684
2020-10-13 21:49:01+00:00,322.8947,13.37,13.21,47.84626,-54.09684
2020-10-13 21:59:01+00:00,327.423,13.37,13.21,47.84626,-54.09684
2020-10-13 22:09:01+00:00,328.5546,13.35,13.21,47.84626,-54.09684
2020-10-13 22:19:01+00:00,320.638,13.3,12.81,47.84626,-54.09684
2020-10-13 22:29:01+00:00,316.08299999999997,13.3,12.81,47.84626,-54.09684
2020-10-13 22:39:01+00:00,315.7879,13.3,12.81,47.84626,-54.09684
2020-10-13 22:49:01+00:00,308.4614,13.3,12.81,47.84626,-54.09684
2020-10-13 22:59:01+00:00,299.5063,13.29,12.81,47.84626,-54.09684
2020-10-13 23:09:01+00:00,296.8063,13.25,12.81,47.84626,-54.09684
2020-10-13 23:19:01+00:00,293.4697,13.2,12.73,47.84626,-54.09684
2020-10-13 23:29:01+00:00,282.5097,13.17,12.73,47.84626,-54.09684
2020-10-13 23:39:01+00:00,275.5564,13.09,12.73,47.84626,-54.09684
2020-10-13 23:49:01+00:00,271.3014,13.0,12.73,47.84626,-54.09684
2020-10-13 23:59:01+00:00,262.9114,13.0,12.73,47.84626,-54.09684
